Location: ???? ????
(41.4149°N, 22.8816°E)
Time: 14:14:05
(UTC+00:00)

CZ-4C R/B - Pass Details

Date: 14 July 2020
Orbit: 409 x 492 km, 97.7° (Epoch: 03 August)

Event Time Altitude Azimuth Distance (km) Brightness Sun altitude
Exits shadow 02:20:58 - 183° (S) 2,272 6.1 -8.0°
Reaches altitude 10° 02:22:48 10° 190° (S) 1,513 5.1 -7.8°
Maximum altitude 02:25:51 38° 261° (W) 655 3.3 -7.3°
Drops below altitude 10° 02:28:51 10° 331° (NNW) 1,497 5.7 -6.9°
Sets 02:30:56 0° 340° (NNW) 2,358 6.8 -6.5°
